Powrót do katalogu

FENGYUN 1C DEB *

AktywnySSO
NORAD 47042·DEBRIS·🇨🇳 China

Wystrzelony May 10, 1999 z Taiyuan Satellite Launch Center

Loading…

Następne Przeloty (najbliższe 24 godziny)

TLE

Starzejące sięSource: Space-Track

Epoka: Sep 7, 2026, 13:09 UTC

1 47042U 99025FBU 26250.54820663  .00000249  00000-0  12904-3 0  9995
2 47042  98.9796 158.6879 0054425 343.6638 140.9282 14.23106495663448

Śledź FENGYUN 1C DEB * w czasie rzeczywistym z AllMySat

Download on the App Store